COSMOS 252 DEB, 3557

Orbit data source: Space-Track

COSMOS 252 DEB, 3557 is space debris in LEO originally from a launch on Fri, 01 Nov 1968 UTC launched from the Tyuratam Missile And Space Complex (TTMTR). Debris objects in space refer to the collection of defunct objects orbiting the Earth. Examples of debris include non-operational satellites, rocket bodies, and fragments generated from explosions, collisions, or faulty payload assembly.

Loading next visibility...
Identifier
3557, 1968-097K
Orbit
LEO
Country
Flag of CISCIS
Related business
Manufacturer
Unknown
Mission
Spacecraft
Bus & Motor
Unknown
Mass
Unknown
Launch date (UTC)
1968-11-01 (57 years ago)
Launch vehicle
Unknown
Launch site
Tyuratam Missile And Space Complex (TTMTR)
Object type
Payload
Rocket body
Debris
Shape & HBR
Unknown shape, 0.2 m
Radar Cross Section
Small (<0.1 m²)

Expand to show TLE details & history
Last TLE update: 16 hours ago

TLE from 16 hours ago
0 COSMOS 252 DEB
1  3557U 68097K   25289.10031780  .00000484  00000-0  20599-3 0  9990
2  3557  62.3102 176.6066 0830798 195.5539 161.8465 13.23946137721886
Epoch: 2025-10-16T02:24Z
TLE epoch observation values (Epoch: 2025-10-16T02:24:27.457Z)
Latitude
-0.00005°
Longitude
115.62728°
Altitude
1,771.752 km
Speed
6.711 km/s
True Right ascension
11h 46m 25s
True Declination
0° 00' 00"
Sunlit
Object was in daylight at epoch
Visualization orbit readout
Latitude
Unknown
Longitude
Unknown
Altitude
Unknown
Speed
Unknown
Apparent Right ascension
Unknown
Apparent Declination
Unknown
Sunlit
N/A
Visualization observer readout
Local Sidereal Time
13:23:08
Azimuth
Unknown
Elevation
Unknown
Doppler factor
Unknown
Orbital elements
Apogee altitude
1,795.637 km
Perigee altitude
541.665 km
Semi-major axis
7,546.788 km
Eccentricity
0.08308
Inclination
62.3102°
RAAN
176.6066°
Arg. of periapsis
195.5539°
True anomaly
164.54444°
Mean anomaly
161.8465°
Eccentric anomaly
163.22068°
Mean motion
3.31055 °/min
Orbital period
108.74 mins
BSTAR
0.00020599
Loading maneuver chart data...
Computing Atmospheric mass density...

Documentation

Showing up to 5 results
|